Culpeper, VA

11:29 AM EST on February 24, 2018 (GMT -0500)
Culpeper Regional

Weather History for KCJR - May, 2013

Change the Weather History Date:

Monday, May 13, 2013

  Actual Average (KOMH) Record (KOMH)
Temperature  
Mean Temperature 50 °F -  
Max Temperature 62 °F 76 °F 95 °F (1956)
Min Temperature 39 °F 52 °F 37 °F (2013)
Degree Days  
Heating Degree Days 14    
Moisture  
Dew Point 33 °F    
Average Humidity 55    
Maximum Humidity 100    
Minimum Humidity 25    
Precipitation  
Precipitation 0.00 in - - ()
Sea Level Pressure  
Sea Level Pressure 30.11 in    
Wind  
Wind Speed 4 mph (WNW)    
Max Wind Speed 15 mph    
Max Gust Speed 25 mph    
Visibility 10 miles    
Events      
Averages and records for this station are not official NWS values.
T = Trace of Precipitation, MM = Missing Value Source: NWS Daily Summary

Daily Weather History Graph

Daily Weather History Graph

Search for Another Location

Airport or City:

Trip Planner

Search our weather history database for the weather conditions in past years. The results will help you decide how hot, cold, wet, or windy it might be!

Date:

Astronomy

May. 13, 2013 Rise Set
Actual Time 6:01 AM EDT 8:14 PM EDT
Civil Twilight 5:31 AM EDT 8:44 PM EDT
Nautical Twilight 4:55 AM EDT 9:20 PM EDT
Astronomical Twilight 4:15 AM EDT 10:00 PM EDT
Moon 8:45 AM EDT (5/13) 11:22 PM EDT (5/13)
Length of Visible Light 15h 12m
Length of Day
14h 13m
Waxing Crescent, 12% of the Moon is Illuminated
May 13
Waxing Crescent
May 18
First Quarter
May 25
Full
May 31
Last Quarter
Jun 8
New

Hourly Weather History & Observations

Time (EDT) Temp. Windchill Dew Point Humidity Pressure Visibility Wind Dir Wind Speed Gust Speed Precip Events Conditions
12:15 AM 51.8 °F - 30.2 °F 44% 30.06 in 10.0 mi WNW 5.8 mph - N/A   Unknown
12:35 AM 51.8 °F - 30.2 °F 44% 30.07 in 10.0 mi WNW 5.8 mph - N/A   Unknown
12:55 AM 51.8 °F - 30.2 °F 44% 30.06 in 10.0 mi WNW 4.6 mph - N/A   Unknown
1:15 AM 48.2 °F - 33.8 °F 58% 30.06 in 10.0 mi Calm Calm - N/A   Unknown
1:35 AM 44.6 °F - 35.6 °F 71% 30.06 in 10.0 mi Calm Calm - N/A   Unknown
1:55 AM 44.6 °F - 35.6 °F 71% 30.06 in 10.0 mi Calm Calm - N/A   Unknown
2:15 AM 42.8 °F - 35.6 °F 76% 30.06 in 10.0 mi Calm Calm - N/A   Unknown
2:35 AM 44.6 °F - 39.2 °F 81% 30.06 in 10.0 mi Calm Calm - N/A   Unknown
2:55 AM 42.8 °F - 37.4 °F 81% 30.07 in 10.0 mi Calm Calm - N/A   Unknown
3:15 AM 53.6 °F - 53.6 °F 100% 30.07 in 10.0 mi NNW 3.5 mph - N/A   Unknown
3:35 AM 42.8 °F - 41.0 °F 93% 30.06 in 10.0 mi Calm Calm - N/A   Unknown
3:55 AM 50.0 °F - 50.0 °F 100% 30.06 in 10.0 mi Calm Calm - N/A   Unknown
4:15 AM 41.0 °F - 41.0 °F 100% 30.06 in 10.0 mi Calm Calm - N/A   Unknown
4:35 AM 41.0 °F - 39.2 °F 93% 30.07 in 10.0 mi Calm Calm - N/A   Unknown
4:55 AM 39.2 °F - 39.2 °F 100% 30.07 in 10.0 mi Calm Calm - N/A   Unknown
5:15 AM 46.4 °F 44.3 °F 30.2 °F 53% 30.08 in 10.0 mi WNW 4.6 mph - N/A   Unknown
5:35 AM 41.0 °F 38.0 °F 33.8 °F 76% 30.09 in 10.0 mi North 4.6 mph - N/A   Unknown
5:55 AM 39.2 °F - 35.6 °F 87% 30.10 in 10.0 mi Calm Calm - N/A   Unknown
6:15 AM 39.2 °F - 37.4 °F 93% 30.10 in 10.0 mi Calm Calm - N/A   Unknown
6:35 AM 39.2 °F - 37.4 °F 93% 30.11 in 10.0 mi Calm Calm - N/A   Unknown
6:55 AM 41.0 °F - 37.4 °F 87% 30.11 in 10.0 mi Calm Calm - N/A   Unknown
7:15 AM 44.6 °F - 39.2 °F 81% 30.11 in 10.0 mi Calm Calm - N/A   Unknown
7:35 AM 46.4 °F 45.2 °F 39.2 °F 76% 30.12 in 10.0 mi South 3.5 mph - N/A   Unknown
7:55 AM 46.4 °F 45.2 °F 37.4 °F 71% 30.12 in 10.0 mi SSW 3.5 mph - N/A   Unknown
8:15 AM 48.2 °F - 37.4 °F 66% 30.12 in 10.0 mi Calm Calm - N/A   Unknown
8:35 AM 50.0 °F - 37.4 °F 62% 30.13 in 10.0 mi Calm Calm - N/A   Unknown
8:55 AM 53.6 °F - 35.6 °F 51% 30.14 in 10.0 mi Calm Calm - N/A   Unknown
9:15 AM 53.6 °F - 35.6 °F 51% 30.14 in 10.0 mi Calm Calm - N/A   Unknown
9:35 AM 53.6 °F - 37.4 °F 54% 30.14 in 10.0 mi West 3.5 mph - N/A   Unknown
9:55 AM 53.6 °F - 35.6 °F 51% 30.14 in 10.0 mi Calm Calm - N/A   Unknown
10:15 AM 55.4 °F - 35.6 °F 47% 30.14 in 10.0 mi NNW 4.6 mph - N/A   Unknown
10:35 AM 55.4 °F - 35.6 °F 47% 30.15 in 10.0 mi NW 4.6 mph - N/A   Unknown
10:55 AM 55.4 °F - 30.2 °F 38% 30.15 in 10.0 mi NW 6.9 mph - N/A   Unknown
11:15 AM 53.6 °F - 28.4 °F 38% 30.15 in 10.0 mi West 9.2 mph 17.3 mph N/A   Unknown
11:35 AM 57.2 °F - 30.2 °F 36% 30.14 in 10.0 mi West 8.1 mph 20.7 mph N/A   Unknown
11:55 AM 55.4 °F - 26.6 °F 33% 30.14 in 10.0 mi West 5.8 mph 17.3 mph N/A   Unknown
12:15 PM 57.2 °F - 28.4 °F 33% 30.14 in 10.0 mi West 11.5 mph - N/A   Unknown
12:35 PM 59.0 °F - 30.2 °F 34% 30.13 in 10.0 mi WSW 9.2 mph - N/A   Unknown
12:55 PM 59.0 °F - 30.2 °F 34% 30.12 in 10.0 mi West 6.9 mph 17.3 mph N/A   Unknown
1:15 PM 59.0 °F - 28.4 °F 31% 30.12 in 10.0 mi West 11.5 mph - N/A   Unknown
1:35 PM 60.8 °F - 28.4 °F 29% 30.10 in 10.0 mi WSW 10.4 mph - N/A   Unknown
1:55 PM 59.0 °F - 24.8 °F 27% 30.10 in 10.0 mi WNW 10.4 mph - N/A   Unknown
2:35 PM 60.8 °F - 26.6 °F 27% 30.09 in - NNW 10.4 mph 16.1 mph N/A   Unknown
2:55 PM 62.6 °F - 26.6 °F 26% 30.08 in 10.0 mi West 15.0 mph 20.7 mph N/A   Unknown
3:15 PM 60.8 °F - 26.6 °F 27% 30.08 in 10.0 mi NNW 8.1 mph 18.4 mph N/A   Unknown
3:35 PM 60.8 °F - 26.6 °F 27% 30.08 in 10.0 mi WNW 11.5 mph 18.4 mph N/A   Unknown
4:35 PM 60.8 °F - 24.8 °F 25% 30.07 in 10.0 mi WNW 11.5 mph 17.3 mph N/A   Unknown
4:55 PM 60.8 °F - 26.6 °F 27% 30.07 in 10.0 mi NW 9.2 mph 16.1 mph N/A   Unknown
5:15 PM 60.8 °F - 28.4 °F 29% 30.07 in 10.0 mi NW 9.2 mph 18.4 mph N/A   Unknown
5:35 PM 60.8 °F - 28.4 °F 29% 30.07 in 10.0 mi NNW 10.4 mph 19.6 mph N/A   Unknown
5:55 PM 59.0 °F - 26.6 °F 29% 30.07 in 10.0 mi NNW 12.7 mph 17.3 mph N/A   Unknown
6:15 PM 57.2 °F - 26.6 °F 31% 30.08 in 10.0 mi NNW 13.8 mph 18.4 mph N/A   Unknown
6:35 PM 59.0 °F - 24.8 °F 27% 30.08 in 10.0 mi NW 11.5 mph 25.3 mph N/A   Unknown
6:55 PM 57.2 °F - 26.6 °F 31% 30.08 in 10.0 mi NNW 10.4 mph 19.6 mph N/A   Unknown
7:35 PM 55.4 °F - 26.6 °F 33% 30.09 in 10.0 mi NNW 3.5 mph - N/A   Unknown
8:15 PM 53.6 °F - 30.2 °F 41% 30.11 in 10.0 mi NNW 3.5 mph - N/A   Unknown
8:35 PM 48.2 °F - 35.6 °F 62% 30.11 in 10.0 mi Calm Calm - N/A   Unknown
8:55 PM 48.2 °F - 33.8 °F 58% 30.12 in 10.0 mi Calm Calm - N/A   Unknown
9:15 PM 48.2 °F - 33.8 °F 58% 30.13 in 10.0 mi WNW 3.5 mph - N/A   Unknown
9:35 PM 50.0 °F - 30.2 °F 47% 30.15 in 10.0 mi NW 3.5 mph - N/A   Unknown
9:55 PM 50.0 °F - 30.2 °F 47% 30.16 in 10.0 mi WNW 3.5 mph - N/A   Unknown
10:15 PM 50.0 °F - 30.2 °F 47% 30.17 in 10.0 mi WNW 5.8 mph - N/A   Unknown
10:35 PM 48.2 °F - 30.2 °F 50% 30.17 in 10.0 mi WNW 3.5 mph - N/A   Unknown
10:55 PM 48.2 °F - 30.2 °F 50% 30.18 in 10.0 mi Calm Calm - N/A   Unknown
11:15 PM 46.4 °F - 30.2 °F 53% 30.18 in 10.0 mi Calm Calm - N/A   Unknown
11:35 PM 42.8 °F 41.1 °F 33.8 °F 70% 30.18 in 10.0 mi WNW 3.5 mph - N/A   Unknown
11:55 PM 41.0 °F 39.0 °F 35.6 °F 81% 30.19 in 10.0 mi NNW 3.5 mph - N/A   Unknown